TimeAKDT,TemperatureF,Dew PointF,Humidity,Sea Level PressureIn,VisibilityMPH,Wind Direction,Wind SpeedMPH,Gust SpeedMPH,PrecipitationIn,Events,Conditions,WindDirDegrees,DateUTC
12:32 AM,60.1,54.0,80,30.20,10.0,East,8.1,-,N/A,,Overcast,90,2013-09-06 08:32:00
12:43 AM,60.1,55.0,83,30.20,10.0,East,8.1,-,N/A,,Overcast,90,2013-09-06 08:43:00
12:53 AM,60.1,55.0,83,30.20,10.0,ESE,5.8,-,N/A,,Overcast,110,2013-09-06 08:53:00
1:35 AM,60.1,54.0,80,30.20,10.0,East,5.8,-,0.00,Rain,Light Rain,80,2013-09-06 09:35:00
1:53 AM,60.1,54.0,80,30.20,10.0,ESE,5.8,-,0.00,,Overcast,120,2013-09-06 09:53:00
2:53 AM,59.0,55.9,90,30.19,10.0,East,4.6,-,0.01,Rain,Light Rain,80,2013-09-06 10:53:00
3:18 AM,59.0,55.9,90,30.18,10.0,East,4.6,-,0.00,,Overcast,90,2013-09-06 11:18:00
3:36 AM,59.0,55.9,90,30.19,10.0,ESE,4.6,-,0.00,,Overcast,110,2013-09-06 11:36:00
3:53 AM,59.0,55.9,90,30.18,10.0,East,6.9,-,0.00,,Overcast,80,2013-09-06 11:53:00
4:53 AM,59.0,55.9,90,30.18,10.0,Calm,Calm,-,N/A,,Overcast,0,2013-09-06 12:53:00
5:53 AM,57.9,55.9,93,30.17,10.0,Calm,Calm,-,N/A,,Overcast,0,2013-09-06 13:53:00
6:22 AM,59.0,55.9,90,30.17,10.0,Calm,Calm,-,N/A,,Overcast,0,2013-09-06 14:22:00
6:53 AM,59.0,55.9,90,30.17,10.0,Calm,Calm,-,N/A,,Overcast,0,2013-09-06 14:53:00
7:31 AM,59.0,55.9,90,30.17,10.0,ESE,4.6,-,N/A,,Overcast,110,2013-09-06 15:31:00
7:53 AM,59.0,55.9,90,30.17,10.0,East,4.6,-,N/A,,Overcast,90,2013-09-06 15:53:00
8:53 AM,59.0,55.9,90,30.17,10.0,NW,8.1,-,N/A,,Mostly Cloudy,320,2013-09-06 16:53:00
9:53 AM,60.1,55.9,86,30.17,10.0,North,3.5,-,N/A,,Overcast,360,2013-09-06 17:53:00
10:53 AM,60.1,57.0,90,30.17,10.0,NW,4.6,-,N/A,,Overcast,320,2013-09-06 18:53:00
11:53 AM,61.0,57.0,87,30.16,10.0,NW,6.9,-,N/A,,Overcast,320,2013-09-06 19:53:00
12:29 PM,63.0,55.0,75,30.16,10.0,NW,6.9,-,N/A,,Overcast,320,2013-09-06 20:29:00
12:53 PM,63.0,55.9,78,30.16,10.0,NNW,5.8,-,N/A,,Overcast,340,2013-09-06 20:53:00
1:53 PM,64.9,55.9,73,30.15,10.0,NNW,5.8,-,N/A,,Overcast,330,2013-09-06 21:53:00
2:53 PM,64.0,54.0,70,30.14,10.0,Calm,Calm,-,N/A,,Overcast,0,2013-09-06 22:53:00
3:53 PM,66.0,54.0,65,30.12,10.0,Calm,Calm,-,N/A,,Overcast,0,2013-09-06 23:53:00
4:53 PM,64.9,57.0,75,30.11,10.0,SSE,3.5,-,N/A,,Overcast,150,2013-09-07 00:53:00
5:53 PM,63.0,52.0,67,30.10,10.0,SSW,6.9,-,N/A,,Overcast,210,2013-09-07 01:53:00
6:53 PM,62.1,53.1,72,30.09,10.0,SSW,12.7,-,N/A,,Overcast,210,2013-09-07 02:53:00
7:53 PM,61.0,55.0,81,30.09,10.0,South,11.5,19.6,N/A,,Overcast,190,2013-09-07 03:53:00
8:53 PM,61.0,55.9,83,30.09,10.0,South,9.2,-,N/A,,Overcast,190,2013-09-07 04:53:00
9:53 PM,61.0,55.0,81,30.09,10.0,South,10.4,-,N/A,,Overcast,190,2013-09-07 05:53:00
10:53 PM,62.1,57.0,84,30.08,10.0,South,10.4,17.3,N/A,,Mostly Cloudy,190,2013-09-07 06:53:00
11:53 PM,61.0,57.0,87,30.08,10.0,SSW,11.5,-,N/A,,Mostly Cloudy,200,2013-09-07 07:53:00